TimeCDT,TemperatureF,Dew PointF,Humidity,Sea Level PressureIn,VisibilityMPH,Wind Direction,Wind SpeedMPH,Gust SpeedMPH,PrecipitationIn,Events,Conditions,WindDirDegrees,DateUTC
12:17 AM,69.8,68.0,94,29.93,0.8,Calm,Calm,-,N/A,,Mist,0,2013-09-03 05:17:00
12:20 AM,69.8,68.0,94,29.93,2.0,Calm,Calm,-,N/A,,Overcast,0,2013-09-03 05:20:00
12:35 AM,69.8,68.0,94,29.93,1.0,Calm,Calm,-,N/A,,Mostly Cloudy,0,2013-09-03 05:35:00
12:43 AM,69.8,68.0,94,29.93,2.0,NNW,3.5,-,N/A,,Mostly Cloudy,330,2013-09-03 05:43:00
12:50 AM,69.8,68.0,94,29.93,8.0,Calm,Calm,-,N/A,,Scattered Clouds,0,2013-09-03 05:50:00
12:53 AM,69.1,68.0,96,29.91,8.0,Calm,Calm,-,N/A,,Scattered Clouds,0,2013-09-03 05:53:00
1:09 AM,69.8,68.0,94,29.93,1.8,Calm,Calm,-,N/A,,Clear,0,2013-09-03 06:09:00
1:19 AM,69.8,68.0,94,29.93,3.0,Calm,Calm,-,N/A,,Clear,0,2013-09-03 06:19:00
1:53 AM,69.1,68.0,96,29.92,9.0,Calm,Calm,-,N/A,,Partly Cloudy,0,2013-09-03 06:53:00
2:02 AM,69.8,68.0,94,29.93,1.8,Calm,Calm,-,N/A,,Partly Cloudy,0,2013-09-03 07:02:00
2:13 AM,68.0,66.2,94,29.94,4.0,Calm,Calm,-,N/A,,Clear,0,2013-09-03 07:13:00
2:27 AM,68.0,68.0,100,29.94,1.5,Calm,Calm,-,N/A,,Scattered Clouds,0,2013-09-03 07:27:00
2:37 AM,66.2,66.2,100,29.94,0.8,Calm,Calm,-,N/A,,Scattered Clouds,0,2013-09-03 07:37:00
2:48 AM,66.2,66.2,100,29.95,2.0,Calm,Calm,-,N/A,,Partly Cloudy,0,2013-09-03 07:48:00
2:53 AM,68.0,66.9,96,29.93,10.0,Calm,Calm,-,N/A,,Partly Cloudy,0,2013-09-03 07:53:00
3:05 AM,68.0,66.2,94,29.95,1.5,Calm,Calm,-,N/A,,Partly Cloudy,0,2013-09-03 08:05:00
3:18 AM,68.0,66.2,94,29.95,3.0,Calm,Calm,-,N/A,,Scattered Clouds,0,2013-09-03 08:18:00
3:32 AM,69.8,66.2,88,29.96,2.5,Calm,Calm,-,N/A,,Scattered Clouds,0,2013-09-03 08:32:00
3:39 AM,69.8,66.2,88,29.95,9.0,Calm,Calm,-,N/A,,Mostly Cloudy,0,2013-09-03 08:39:00
3:53 AM,68.0,66.9,96,29.94,9.0,Calm,Calm,-,N/A,,Scattered Clouds,0,2013-09-03 08:53:00
4:46 AM,66.2,64.4,94,29.96,1.8,Calm,Calm,-,N/A,,Clear,0,2013-09-03 09:46:00
4:53 AM,66.0,64.9,96,29.95,1.5,Calm,Calm,-,N/A,,Clear,0,2013-09-03 09:53:00
4:56 AM,66.2,64.4,94,29.96,3.0,Calm,Calm,-,N/A,,Clear,0,2013-09-03 09:56:00
5:11 AM,66.2,64.4,94,29.96,1.8,Calm,Calm,-,N/A,,Clear,0,2013-09-03 10:11:00
5:27 AM,66.2,64.4,94,29.97,4.0,Calm,Calm,-,N/A,,Clear,0,2013-09-03 10:27:00
5:53 AM,66.0,64.0,93,29.96,9.0,Calm,Calm,-,N/A,,Clear,0,2013-09-03 10:53:00
6:38 AM,64.4,62.6,94,29.99,1.2,Calm,Calm,-,N/A,,Clear,0,2013-09-03 11:38:00
6:53 AM,64.9,64.0,97,29.98,0.5,Calm,Calm,-,N/A,Fog,Fog,0,2013-09-03 11:53:00
7:06 AM,66.2,64.4,94,30.00,5.0,Calm,Calm,-,N/A,,Clear,0,2013-09-03 12:06:00
7:53 AM,71.1,66.0,84,29.99,10.0,North,4.6,-,N/A,,Clear,360,2013-09-03 12:53:00
8:53 AM,75.0,66.9,76,30.00,10.0,North,6.9,-,N/A,,Clear,10,2013-09-03 13:53:00
9:53 AM,79.0,68.0,69,30.02,10.0,North,4.6,-,N/A,,Clear,10,2013-09-03 14:53:00
10:53 AM,82.0,64.9,56,30.02,10.0,NNE,9.2,-,N/A,,Clear,20,2013-09-03 15:53:00
11:53 AM,84.0,63.0,49,30.01,10.0,North,10.4,-,N/A,,Clear,10,2013-09-03 16:53:00
12:53 PM,84.9,63.0,48,30.00,10.0,North,8.1,-,N/A,,Clear,350,2013-09-03 17:53:00
1:53 PM,84.9,62.1,46,29.99,10.0,NNE,6.9,-,N/A,,Clear,20,2013-09-03 18:53:00
2:53 PM,86.0,62.1,44,29.97,10.0,North,9.2,-,N/A,,Clear,360,2013-09-03 19:53:00
3:53 PM,86.0,61.0,43,29.96,10.0,Variable,5.8,-,N/A,,Clear,0,2013-09-03 20:53:00
4:53 PM,84.9,62.1,46,29.96,10.0,North,8.1,-,N/A,,Clear,10,2013-09-03 21:53:00
5:53 PM,84.0,62.1,47,29.96,10.0,NNW,8.1,-,N/A,,Clear,340,2013-09-03 22:53:00
6:53 PM,81.0,63.0,54,29.97,10.0,North,6.9,-,N/A,,Scattered Clouds,360,2013-09-03 23:53:00
7:53 PM,72.0,64.9,78,29.98,10.0,Calm,Calm,-,N/A,,Clear,0,2013-09-04 00:53:00
8:53 PM,68.0,64.0,87,30.01,10.0,Calm,Calm,-,N/A,,Clear,0,2013-09-04 01:53:00
9:53 PM,66.0,64.0,93,30.03,10.0,Calm,Calm,-,N/A,,Clear,0,2013-09-04 02:53:00
10:53 PM,64.9,64.0,97,30.04,3.0,Calm,Calm,-,N/A,,Clear,0,2013-09-04 03:53:00
11:00 PM,64.4,62.6,94,30.05,2.0,Calm,Calm,-,N/A,,Clear,0,2013-09-04 04:00:00
11:09 PM,64.4,62.6,94,30.05,7.0,Calm,Calm,-,N/A,,Clear,0,2013-09-04 04:09:00
11:38 PM,62.6,62.6,100,30.05,1.8,Calm,Calm,-,N/A,,Clear,0,2013-09-04 04:38:00
11:53 PM,63.0,62.1,97,30.04,1.5,Calm,Calm,-,N/A,,Clear,0,2013-09-04 04:53:00